{"data":{"norad_id":57301,"epoch":"2026-05-24T17:21:58.405824Z","epoch_age_seconds":96000,"freshness":"FRESH","line1":"1 57301U 23096M   26144.72359266  .00000824  00000+0  39449-4 0  9999","line2":"2 57301  43.0013 153.9569 0001238 279.5223  80.5489 15.27576659158349","mean_motion":15.27576659,"eccentricity":0.0001238,"inclination_deg":43.0013,"raan_deg":153.9569,"arg_perigee_deg":279.5223,"mean_anomaly_deg":80.5489,"bstar":3.9449e-5,"rev_number":15834,"period_min":94.266954886747,"perigee_km":482.2096841366,"apogee_km":483.90851629101,"semimajor_km":6861.1961002138,"source":"CELESTRAK","updated_at":"2026-05-25T13:38:18.284319Z"}}